AUA108 LOWI-LOWW

Flight info

Callsign AUA108
Flight time 0h 52m
Altitude 29000
Route RTT DCT NEMAL NEMAL2W
Aircraft A320/M-SDE3FGHIRWY/LB1

Departure

Time 2026-04-22 18:34
Airport Innsbruck Airport (LOWI)

Arrival

Time 2026-04-22 19:26
Airport Vienna International Airport (LOWW)
Time Latitude Longitude Altitude Speed Heading
2026-04-22 18:04 47.25838 11.35241 1901 ft 0 kts 173°
2026-04-22 18:20 47.25842 11.35241 1901 ft 2 kts 173°
2026-04-22 18:20 47.25859 11.35238 1895 ft 2 kts 173°
2026-04-22 18:20 47.25876 11.35235 1898 ft 3 kts 183°
2026-04-22 18:21 47.25888 11.35237 1897 ft 0 kts 207°
2026-04-22 18:21 47.25898 11.35246 1887 ft 0 kts 233°
2026-04-22 18:23 47.25886 11.35194 1901 ft 9 kts 261°
2026-04-22 18:24 47.25867 11.34999 1897 ft 9 kts 261°
2026-04-22 18:24 47.25855 11.34888 1901 ft 14 kts 261°
2026-04-22 18:24 47.25831 11.34626 1901 ft 12 kts 262°
2026-04-22 18:25 47.25820 11.34512 1890 ft 11 kts 262°
2026-04-22 18:25 47.25809 11.34406 1895 ft 12 kts 261°
2026-04-22 18:25 47.25793 11.34264 1894 ft 13 kts 261°
2026-04-22 18:26 47.25772 11.34014 1904 ft 8 kts 274°
2026-04-22 18:26 47.25777 11.33970 1907 ft 0 kts 283°
2026-04-22 18:27 47.25781 11.33950 1899 ft 6 kts 288°
2026-04-22 18:27 47.25805 11.33890 1908 ft 6 kts 306°
2026-04-22 18:27 47.25811 11.33877 1907 ft 0 kts 306°
2026-04-22 18:31 47.25831 11.33836 1918 ft 7 kts 306°
2026-04-22 18:31 47.25876 11.33746 1917 ft 14 kts 306°
2026-04-22 18:32 47.25928 11.33615 1910 ft 19 kts 281°
2026-04-22 18:32 47.25908 11.33353 1907 ft 25 kts 262°
2026-04-22 18:32 47.25855 11.33186 1910 ft 14 kts 229°
2026-04-22 18:32 47.25881 11.33145 1914 ft 6 kts 49°
2026-04-22 18:33 47.25888 11.33184 1914 ft 0 kts 78°
2026-04-22 18:33 47.25902 11.33308 1914 ft 46 kts 81°
2026-04-22 18:33 47.25992 11.34125 1907 ft 113 kts 81°
2026-04-22 18:33 47.26138 11.35524 1990 ft 156 kts 81°
2026-04-22 18:34 47.26323 11.37058 2785 ft 149 kts 79°
2026-04-22 18:34 47.26528 11.38584 3398 ft 156 kts 77°
2026-04-22 18:34 47.26753 11.40245 3713 ft 175 kts 78°
2026-04-22 18:34 47.26992 11.42068 4164 ft 185 kts 78°
2026-04-22 18:35 47.27233 11.43935 4705 ft 186 kts 79°
2026-04-22 18:35 47.27549 11.45777 5374 ft 186 kts 75°
2026-04-22 18:35 47.27901 11.47618 6065 ft 188 kts 73°
2026-04-22 18:35 47.28259 11.49471 6671 ft 189 kts 73°
2026-04-22 18:36 47.28619 11.51346 7234 ft 191 kts 73°
2026-04-22 18:36 47.28996 11.53318 7354 ft 208 kts 73°
2026-04-22 18:36 47.29389 11.55395 7352 ft 212 kts 73°
2026-04-22 18:36 47.29783 11.57491 7337 ft 218 kts 73°
2026-04-22 18:37 47.30226 11.59840 7330 ft 255 kts 73°
2026-04-22 18:37 47.30712 11.62415 7346 ft 265 kts 73°
2026-04-22 18:37 47.31308 11.64993 7346 ft 266 kts 61°
2026-04-22 18:37 47.32330 11.67269 7349 ft 267 kts 55°
2026-04-22 18:38 47.33399 11.69514 7462 ft 270 kts 55°
2026-04-22 18:38 47.34482 11.71781 8437 ft 270 kts 54°
2026-04-22 18:38 47.35557 11.74061 9447 ft 273 kts 57°
2026-04-22 18:39 47.37532 11.79057 10968 ft 292 kts 60°
2026-04-22 18:39 47.38519 11.81702 11725 ft 298 kts 60°
2026-04-22 18:39 47.39519 11.84381 12041 ft 297 kts 59°
2026-04-22 18:39 47.40532 11.87003 12237 ft 298 kts 59°
2026-04-22 18:40 47.41538 11.89671 12280 ft 297 kts 60°
2026-04-22 18:40 47.42504 11.92367 12281 ft 297 kts 61°
2026-04-22 18:40 47.43434 11.95092 12290 ft 297 kts 62°
2026-04-22 18:40 47.44338 11.97828 12286 ft 297 kts 63°
2026-04-22 18:41 47.45226 12.00566 12288 ft 296 kts 63°
2026-04-22 18:41 47.46111 12.03325 12289 ft 296 kts 63°
2026-04-22 18:41 47.46996 12.06096 12689 ft 300 kts 63°
2026-04-22 18:41 47.47885 12.08886 13663 ft 301 kts 63°
2026-04-22 18:42 47.48782 12.11696 14530 ft 303 kts 62°
2026-04-22 18:42 47.49687 12.14522 15198 ft 306 kts 62°
2026-04-22 18:42 47.50600 12.17375 15900 ft 309 kts 62°
2026-04-22 18:42 47.51527 12.20276 16212 ft 312 kts 62°
2026-04-22 18:43 47.52453 12.23183 16285 ft 312 kts 62°
2026-04-22 18:43 47.53376 12.26084 16292 ft 312 kts 62°
2026-04-22 18:43 47.54300 12.28992 16288 ft 312 kts 63°
2026-04-22 18:43 47.55228 12.31912 16454 ft 315 kts 62°
2026-04-22 18:44 47.56162 12.34853 17242 ft 317 kts 62°
2026-04-22 18:44 47.57105 12.37826 18032 ft 320 kts 62°
2026-04-22 18:44 47.58052 12.40822 18757 ft 323 kts 62°
2026-04-22 18:44 47.59007 12.43850 19399 ft 326 kts 62°
2026-04-22 18:45 47.59974 12.46911 20029 ft 330 kts 62°
2026-04-22 18:45 47.60950 12.49998 20658 ft 333 kts 62°
2026-04-22 18:45 47.61936 12.53126 21294 ft 336 kts 62°
2026-04-22 18:45 47.62927 12.56274 21913 ft 339 kts 62°
2026-04-22 18:46 47.63923 12.59445 22558 ft 341 kts 62°
2026-04-22 18:46 47.64930 12.62651 23181 ft 344 kts 62°
2026-04-22 18:46 47.65946 12.65885 23836 ft 346 kts 62°
2026-04-22 18:46 47.66964 12.69133 24375 ft 349 kts 62°
2026-04-22 18:47 47.67993 12.72419 24883 ft 352 kts 62°
2026-04-22 18:47 47.69032 12.75732 25371 ft 356 kts 62°
2026-04-22 18:47 47.70076 12.79073 25868 ft 359 kts 62°
2026-04-22 18:47 47.71131 12.82458 26380 ft 363 kts 63°
2026-04-22 18:48 47.72191 12.85876 26900 ft 366 kts 63°
2026-04-22 18:48 47.73257 12.89319 27394 ft 369 kts 63°
2026-04-22 18:48 47.74334 12.92793 27887 ft 371 kts 63°
2026-04-22 18:48 47.75418 12.96295 28377 ft 374 kts 63°
2026-04-22 18:49 47.76492 12.99772 28869 ft 377 kts 63°
2026-04-22 18:49 47.77602 13.03370 29224 ft 379 kts 63°
2026-04-22 18:49 47.79778 13.10443 29275 ft 377 kts 63°
2026-04-22 18:50 47.81972 13.17575 29275 ft 376 kts 63°
2026-04-22 18:50 47.84129 13.24629 29279 ft 373 kts 63°
2026-04-22 18:51 47.86283 13.31660 29281 ft 373 kts 64°
2026-04-22 18:51 47.88415 13.38662 29296 ft 373 kts 64°
2026-04-22 18:52 47.90546 13.45703 29284 ft 373 kts 66°
2026-04-22 18:52 47.91738 13.53221 29286 ft 377 kts 84°
2026-04-22 18:53 47.91745 13.61052 29298 ft 378 kts 88°
2026-04-22 18:53 47.91718 13.68883 29239 ft 376 kts 88°
2026-04-22 18:54 47.91702 13.72766 28711 ft 373 kts 88°
2026-04-22 18:54 47.91683 13.76624 28172 ft 370 kts 88°
2026-04-22 18:54 47.91661 13.80444 27648 ft 367 kts 88°
2026-04-22 18:54 47.91636 13.84230 27142 ft 364 kts 88°
2026-04-22 18:55 47.91612 13.87989 26660 ft 361 kts 88°
2026-04-22 18:55 47.91588 13.91715 26314 ft 358 kts 88°
2026-04-22 18:55 47.91564 13.95424 26198 ft 357 kts 88°
2026-04-22 18:55 47.91538 13.99118 25714 ft 355 kts 88°
2026-04-22 18:56 47.91508 14.02781 25344 ft 352 kts 88°
2026-04-22 18:56 47.91477 14.06437 25265 ft 353 kts 88°
2026-04-22 18:56 47.91447 14.10101 25279 ft 354 kts 88°
2026-04-22 18:56 47.91417 14.13779 25046 ft 353 kts 88°
2026-04-22 18:57 47.91386 14.17432 24807 ft 352 kts 88°
2026-04-22 18:57 47.91353 14.21065 24562 ft 350 kts 88°
2026-04-22 18:57 47.91319 14.24687 24318 ft 349 kts 88°
2026-04-22 18:57 47.91282 14.28305 24076 ft 348 kts 88°
2026-04-22 18:58 47.91244 14.31850 23842 ft 346 kts 88°
2026-04-22 18:58 47.91202 14.35434 23555 ft 345 kts 88°
2026-04-22 18:58 47.91158 14.39004 23279 ft 344 kts 88°
2026-04-22 18:58 47.91117 14.42549 23006 ft 342 kts 88°
2026-04-22 18:59 47.91076 14.46086 22727 ft 341 kts 88°
2026-04-22 18:59 47.91035 14.49611 22455 ft 340 kts 88°
2026-04-22 18:59 47.90994 14.53127 22178 ft 338 kts 88°
2026-04-22 18:59 47.90952 14.56628 21908 ft 337 kts 88°
2026-04-22 19:00 47.90908 14.60112 21644 ft 336 kts 88°
2026-04-22 19:00 47.90862 14.63590 21375 ft 335 kts 88°
2026-04-22 19:00 47.90816 14.67072 21118 ft 339 kts 88°
2026-04-22 19:00 47.90753 14.70597 20859 ft 340 kts 88°
2026-04-22 19:01 47.90686 14.74122 20601 ft 340 kts 88°
2026-04-22 19:01 47.90616 14.77633 20348 ft 339 kts 88°
2026-04-22 19:01 47.90547 14.81147 20089 ft 339 kts 88°
2026-04-22 19:01 47.90472 14.84654 19833 ft 337 kts 88°
2026-04-22 19:02 47.90395 14.88143 19590 ft 337 kts 88°
2026-04-22 19:02 47.90340 14.91625 19340 ft 335 kts 87°
2026-04-22 19:02 47.90306 14.95096 19109 ft 335 kts 87°
2026-04-22 19:02 47.90272 14.98559 18861 ft 334 kts 87°
2026-04-22 19:03 47.90230 15.02016 18622 ft 333 kts 87°
2026-04-22 19:03 47.90177 15.05464 18349 ft 332 kts 87°
2026-04-22 19:03 47.90116 15.08904 18075 ft 331 kts 88°
2026-04-22 19:03 47.90053 15.12333 17802 ft 330 kts 88°
2026-04-22 19:04 47.89987 15.15740 17475 ft 329 kts 88°
2026-04-22 19:04 47.89918 15.19143 17156 ft 328 kts 88°
2026-04-22 19:04 47.89849 15.22526 16837 ft 326 kts 88°
2026-04-22 19:04 47.89777 15.25905 16517 ft 325 kts 88°
2026-04-22 19:05 47.89705 15.29254 16208 ft 323 kts 88°
2026-04-22 19:05 47.89632 15.32605 15899 ft 322 kts 88°
2026-04-22 19:05 47.89563 15.35931 15596 ft 321 kts 88°
2026-04-22 19:05 47.89495 15.39254 15290 ft 321 kts 87°
2026-04-22 19:06 47.89424 15.42568 14993 ft 319 kts 88°
2026-04-22 19:06 47.89351 15.45873 14693 ft 318 kts 88°
2026-04-22 19:06 47.89302 15.48047 14497 ft 317 kts 88°
2026-04-22 19:07 47.89131 15.55664 13782 ft 315 kts 88°
2026-04-22 19:07 47.89080 15.57861 13568 ft 314 kts 88°
2026-04-22 19:07 47.89004 15.61109 13232 ft 314 kts 88°
2026-04-22 19:07 47.88903 15.65410 12807 ft 312 kts 88°
2026-04-22 19:08 47.88851 15.67583 12593 ft 311 kts 88°
2026-04-22 19:08 47.88774 15.70806 12276 ft 311 kts 88°
2026-04-22 19:08 47.88696 15.74018 11960 ft 310 kts 88°
2026-04-22 19:08 47.88617 15.77235 11654 ft 310 kts 88°
2026-04-22 19:09 47.88539 15.80439 11353 ft 309 kts 88°
2026-04-22 19:09 47.88459 15.83633 11230 ft 308 kts 88°
2026-04-22 19:09 47.88376 15.86828 11249 ft 309 kts 88°
2026-04-22 19:09 47.88290 15.90038 11247 ft 310 kts 88°
2026-04-22 19:10 47.88205 15.93241 11245 ft 310 kts 88°
2026-04-22 19:10 47.88119 15.96446 11244 ft 309 kts 88°
2026-04-22 19:10 47.88032 15.99654 11248 ft 309 kts 88°
2026-04-22 19:10 47.87946 16.02844 11245 ft 309 kts 88°
2026-04-22 19:11 47.87862 16.06044 11246 ft 309 kts 88°
2026-04-22 19:11 47.87776 16.09240 11230 ft 308 kts 88°
2026-04-22 19:11 47.87689 16.12410 10834 ft 305 kts 89°
2026-04-22 19:11 47.87601 16.15565 10343 ft 304 kts 88°
2026-04-22 19:12 47.87512 16.18711 9861 ft 303 kts 88°
2026-04-22 19:12 47.87422 16.21838 9374 ft 302 kts 89°
2026-04-22 19:12 47.87330 16.24951 8898 ft 300 kts 89°
2026-04-22 19:12 47.87239 16.28021 8625 ft 292 kts 88°
2026-04-22 19:13 47.87149 16.31005 8358 ft 284 kts 88°
2026-04-22 19:13 47.87064 16.33910 8115 ft 278 kts 88°
2026-04-22 19:13 47.86979 16.36776 7936 ft 275 kts 88°
2026-04-22 19:13 47.86896 16.39618 7514 ft 274 kts 88°
2026-04-22 19:14 47.86812 16.42443 7120 ft 272 kts 88°
2026-04-22 19:14 47.86729 16.45245 6716 ft 271 kts 88°
2026-04-22 19:14 47.86643 16.48038 6299 ft 269 kts 88°
2026-04-22 19:14 47.86554 16.50799 5935 ft 265 kts 88°
2026-04-22 19:15 47.86463 16.53494 5678 ft 256 kts 88°
2026-04-22 19:15 47.86373 16.56109 5417 ft 248 kts 88°
2026-04-22 19:15 47.86289 16.58636 5164 ft 241 kts 88°
2026-04-22 19:15 47.86209 16.61110 4903 ft 236 kts 88°
2026-04-22 19:16 47.86135 16.63502 4644 ft 234 kts 87°
2026-04-22 19:16 47.86055 16.65946 4376 ft 233 kts 87°
2026-04-22 19:16 47.85973 16.68355 4129 ft 233 kts 87°
2026-04-22 19:16 47.86098 16.70721 4005 ft 227 kts 73°
2026-04-22 19:17 47.86441 16.72966 4002 ft 225 kts 71°
2026-04-22 19:17 47.86825 16.75261 4006 ft 226 kts 70°
2026-04-22 19:17 47.87204 16.77500 4004 ft 226 kts 70°
2026-04-22 19:17 47.87587 16.79767 4004 ft 225 kts 70°
2026-04-22 19:18 47.87972 16.82032 4004 ft 226 kts 70°
2026-04-22 19:18 47.88357 16.84299 4000 ft 226 kts 70°
2026-04-22 19:18 47.88786 16.86539 3995 ft 222 kts 60°
2026-04-22 19:18 47.89751 16.88231 4000 ft 213 kts 32°
2026-04-22 19:19 47.91014 16.89373 3998 ft 213 kts 26°
2026-04-22 19:19 47.92334 16.90353 3999 ft 211 kts 14°
2026-04-22 19:19 47.93765 16.90357 3824 ft 208 kts 342°
2026-04-22 19:19 47.95005 16.89314 3644 ft 201 kts 327°
2026-04-22 19:20 47.96106 16.88099 3515 ft 192 kts 326°
2026-04-22 19:20 47.97145 16.86913 3380 ft 184 kts 326°
2026-04-22 19:20 47.98135 16.85773 3249 ft 176 kts 326°
2026-04-22 19:20 47.99081 16.84675 3116 ft 171 kts 326°
2026-04-22 19:21 48.00019 16.83584 3032 ft 170 kts 326°
2026-04-22 19:21 48.00946 16.82504 3004 ft 165 kts 326°
2026-04-22 19:21 48.01813 16.81485 3004 ft 155 kts 326°
2026-04-22 19:21 48.02646 16.80500 2999 ft 151 kts 326°
2026-04-22 19:22 48.03469 16.79523 3006 ft 150 kts 325°
2026-04-22 19:22 48.04096 16.78270 3014 ft 157 kts 298°
2026-04-22 19:22 48.04560 16.76806 3063 ft 156 kts 303°
2026-04-22 19:22 48.05055 16.75370 3027 ft 155 kts 303°
2026-04-22 19:23 48.05537 16.73932 2973 ft 155 kts 303°
2026-04-22 19:23 48.06016 16.72486 2805 ft 154 kts 303°
2026-04-22 19:23 48.06492 16.71043 2630 ft 155 kts 302°
2026-04-22 19:23 48.06967 16.69584 2457 ft 157 kts 302°
2026-04-22 19:24 48.07446 16.68116 2274 ft 155 kts 302°
2026-04-22 19:24 48.07890 16.66763 2094 ft 137 kts 303°
2026-04-22 19:24 48.08295 16.65532 1851 ft 131 kts 304°
2026-04-22 19:24 48.08688 16.64323 1682 ft 127 kts 302°
2026-04-22 19:25 48.09079 16.63131 1484 ft 128 kts 301°
2026-04-22 19:25 48.09475 16.61940 1336 ft 128 kts 299°
2026-04-22 19:25 48.09868 16.60727 1123 ft 130 kts 298°
2026-04-22 19:25 48.10268 16.59514 940 ft 130 kts 298°
2026-04-22 19:26 48.10670 16.58269 764 ft 129 kts 298°
2026-04-22 19:26 48.11049 16.57121 621 ft 119 kts 297°
2026-04-22 19:26 48.11350 16.56206 618 ft 74 kts 295°
2026-04-22 19:26 48.11514 16.55697 615 ft 45 kts 296°
2026-04-22 19:27 48.11666 16.55338 609 ft 38 kts 315°
2026-04-22 19:27 48.11818 16.55148 611 ft 20 kts 341°
2026-04-22 19:27 48.11862 16.55147 609 ft 0 kts 22°
2026-04-22 19:29 48.11866 16.55150 609 ft 4 kts 24°
2026-04-22 19:29 48.11882 16.55177 617 ft 4 kts 68°
2026-04-22 19:29 48.11875 16.55235 621 ft 8 kts 116°
2026-04-22 19:30 48.11854 16.55288 613 ft 10 kts 120°
2026-04-22 19:30 48.11810 16.55430 620 ft 11 kts 116°
2026-04-22 19:30 48.11769 16.55554 621 ft 16 kts 116°
2026-04-22 19:30 48.11722 16.55701 616 ft 15 kts 115°
2026-04-22 19:31 48.11678 16.55838 612 ft 14 kts 115°
2026-04-22 19:31 48.11632 16.55977 609 ft 18 kts 116°
2026-04-22 19:31 48.11577 16.56147 612 ft 17 kts 116°
2026-04-22 19:31 48.11524 16.56303 621 ft 16 kts 117°
2026-04-22 19:32 48.11478 16.56450 617 ft 15 kts 116°
2026-04-22 19:32 48.11434 16.56586 613 ft 14 kts 115°
2026-04-22 19:32 48.11393 16.56712 613 ft 13 kts 117°
2026-04-22 19:32 48.11404 16.56823 609 ft 11 kts 37°
2026-04-22 19:33 48.11476 16.56879 614 ft 12 kts 26°
2026-04-22 19:33 48.11566 16.56925 614 ft 15 kts
2026-04-22 19:33 48.11655 16.56954 615 ft 1 kts 24°
2026-04-22 19:33 48.11656 16.56955 616 ft 0 kts 24°